Regional Weather Roundup
Issued by NWS

Home | Current Version | Previous Version | Graphics & Text | Print | Product List | Glossary On
Versions: 1 2 3 4 5 6 7 8 9 10 11 12 13 14 15 16 17 18 19 20 21 22 23 24 25 26 27 28 29 30 31 32 33 34 35 36 37 38 39 40 41 42 43 44 45 46 47 48 49 50
343
ASUS44 KJAN 231403
RWRMS

MISSISSIPPI HOURLY WEATHER ROUNDUP
NATIONAL WEATHER SERVICE JACKSON MS
800 AM CST SUN NOV 23 2014

NOTE: "FAIR: INDICATES FEW OR NO CLOUDS BELOW 12,000 FEET WITH NO
SIGNIFICANT WEATHER AND/OR OBSTRUCTIONS TO VISIBILITY.

MSZ001>002-007>008-010>013-018>021-025>028-034>036-231500-
NORTHWEST MISSISSIPPI

CITY           SKY/WX    TMP DP  RH WIND       PRES   REMARKS
CLARKSDALE     CLOUDY    59  59 100 SE13      29.71F
CLEVELAND      LGT RAIN  59  59 100 SE10      29.68F
GREENWOOD      LGT RAIN  60  58  92 E7        29.71F FOG
GREENVILLE     CLOUDY    60  59  96 SE10      29.66F FOG
GRENADA        RAIN      55  55 100 CALM      29.75F
OLIVE BRANCH   CLOUDY    55  55 100 SE12G17   29.74F FOG
OXFORD         CLOUDY    55  54  94 SE10      29.76F FOG
TUNICA         CLOUDY    59  55  88 SE12      29.71F
$$

MSZ003>006-009-014>017-022>024-029>033-037>039-231500-
NORTHEAST MISSISSIPPI

CITY           SKY/WX    TMP DP  RH WIND       PRES   REMARKS
COLUMBUS AFB   MIX PCPN  59  59 100 SE10      29.78F FOG
CORINTH        CLOUDY    59  55  88 SE10G16   29.78F
GOLDN TRIANGLE FOG       57  55  94 SE14      29.77F VSB 1
STARKVILLE     CLOUDY    55  55 100 SE9       29.76F
TUPELO         LGT RAIN  58  56  93 MISG      29.78F FOG
$$

MSZ040-058-231500-
CENTRAL MISSISSIPPI

CITY           SKY/WX    TMP DP  RH WIND       PRES   REMARKS
JACKSON INTL   LGT RAIN  61  60  97 SE10      29.69F
JACKSON HAWKNS LGT RAIN  61  59  93 SE9       29.68F FOG
MERIDIAN KEY   LGT RAIN  59  58  96 E3        29.74F FOG
MERIDIAN NAS   LGT RAIN  59  58  96 E8        29.76F FOG
RAYMOND        LGT RAIN  61  55  82 E10       29.68F
VICKSBURG      LGT RAIN  62  60  93 E15       29.59F
$$

MSZ059>079-231500-
SOUTH MISSISSIPPI

CITY           SKY/WX    TMP DP  RH WIND       PRES   REMARKS
BROOKHAVEN     LGT RAIN  61  61 100 E6        29.68F VSB 1/2
HATTIESBURG    HVY RAIN  61  60  97 E3        29.73F VSB 1
MCCOMB         RAIN      62  60  93 SW7       29.68F FOG
NATCHEZ        CLOUDY    63  61  94 SE12G28   29.55F
PINE BELT      CLOUDY    61  57  88 SE6       29.75F
$$

MSZ080>082-231500-
COASTAL MISSISSIPPI

CITY           SKY/WX    TMP DP  RH WIND       PRES   REMARKS
BAY ST LOUIS   CLOUDY    68  64  88 SE12      29.71F
BILOXI         CLOUDY    70  70 100 S15G21    29.73R
PASCAGOULA     CLOUDY    72  70  93 SE14      29.74R
GULFPORT       CLOUDY    70  68  93 SE15G25   29.72R FOG
$$



USA.gov is the U.S. government's official web portal to all federal, state and local government web resources and services.